CZ-3C DEB

基本信息
目录编号:
40174
目录名称:
CZ-3C DEB
国际标识:
2010-057AC
轨道中心:
EARTH
物体状态:
在轨
发射日期:
2010-10-31 UTC
轨道信息
数据来源: 国际轨道数据
星历时间: 2026-07-13T20:39:04+0800
半长轴: 23894.623km
偏心率: 0.7082963
轨道倾角: 20.190°
近地点辐角: 109.403°
升交点赤经: 293.942°
平近点角: 266.500°
近地点: 592.012km
远地点: 34440.96km
周期: 612.647分钟
每日圈数: 2.350458
详细信息
发射场:
XSC
轨道高度:
LEO
数据来源:
AOE Integration Group
参考系:
TEME
时间系统:
UTC
历元类型:
SGP4
2D轨道图
3D轨道图
轨道高度分析图
轨道倾角分析图
轨道综合分析图
查看轨道综合分析图